This demonstration page uses our WeatherBlox Daily Observations layout. Learn more.

Left ArrowRight Arrow

Hourly Observations for April 19, 2017

Temp ( °F °C ) Dew Point ( °F °C ) Humidity (%) Winds ( mph kmh ) Pressure ( in mb ) Visibility ( mi km ) Precip ( " mm )
12:15 am 00:15 Clear 57 14 37 3 48 48 S 13 20 30.42 1030 10 16 N/A
12:35 am 00:35 Clear 57 14 39 4 51 51 S 13 20 30.42 1030 10 16 N/A
12:55 am 00:55 Clear 55 13 39 4 55 55 S 10 17 30.45 1031 10 16 N/A
1:15 am 01:15 Clear 55 13 39 4 55 55 S 8 13 30.45 1031 10 16 N/A
1:35 am 01:35 Clear 54 12 41 5 63 63 S 6 9 30.45 1031 10 16 N/A
1:55 am 01:55 Clear 54 12 41 5 63 63 S 5 7 30.45 1031 10 16 N/A
2:15 am 02:15 Partly Cloudy 54 12 41 5 63 63 S 5 7 30.45 1031 10 16 N/A
2:35 am 02:35 Mostly Cloudy 54 12 41 5 63 63 SSE 6 9 30.45 1031 10 16 N/A
2:55 am 02:55 Mostly Cloudy 54 12 41 5 63 63 SSE 7 11 30.45 1031 10 16 N/A
3:15 am 03:15 Mostly Cloudy 54 12 41 5 63 63 SSE 6 9 30.45 1031 10 16 N/A
3:35 am 03:35 Cloudy 54 12 41 5 63 63 SE 7 11 30.45 1031 10 16 N/A
3:55 am 03:55 Cloudy 54 12 41 5 63 63 S 9 15 30.45 1031 10 16 N/A
4:15 am 04:15 Cloudy 54 12 43 6 67 67 N N/A 30.45 1031 10 16 N/A
4:35 am 04:35 Cloudy 54 12 43 6 67 67 SSE 5 7 30.45 1031 10 16 N/A
4:55 am 04:55 Cloudy 54 12 45 7 72 72 N N/A 30.45 1031 10 16 N/A
5:15 am 05:15 Cloudy with Light Rain 54 12 45 7 72 72 S 6 9 30.45 1031 10 16 N/A
5:35 am 05:35 Cloudy 54 12 46 8 77 77 S 7 11 30.45 1031 10 16 N/A
5:55 am 05:55 Cloudy with Drizzle 52 11 48 9 88 88 SSE 7 11 30.45 1031 10 16 N/A
6:15 am 06:15 Cloudy with Rain 52 11 50 10 94 94 SSE 8 13 30.45 1031 10 16 N/A
6:35 am 06:35 Cloudy with Light Rain 52 11 50 10 94 94 SE 7 11 30.45 1031 10 16 0.01 0.25
6:55 am 06:55 Cloudy with Light Rain 52 11 52 11 100 100 SSE 9 15 30.45 1031 10 16 0.01 0.25
7:15 am 07:15 Cloudy 52 11 52 11 100 100 SE 7 11 30.45 1031 10 16 N/A
7:35 am 07:35 Cloudy 54 12 52 11 94 94 SE 8 13 30.45 1031 10 16 N/A
7:55 am 07:55 Cloudy 54 12 52 11 94 94 SSE 9 15 30.48 1032 10 16 N/A
8:15 am 08:15 Cloudy 54 12 52 11 94 94 S 9 15 30.48 1032 10 16 N/A
8:35 am 08:35 Cloudy 54 12 52 11 94 94 SSE 7 11 30.48 1032 10 16 N/A
8:55 am 08:55 Cloudy with Light Rain 54 12 52 11 94 94 SSE 7 11 30.48 1032 10 16 N/A
9:15 am 09:15 undefined 54 12 54 12 100 100 SE 8 13 30.45 1031 N/A N/A
9:35 am 09:35 Cloudy 54 12 54 12 100 100 S 12 19 30.45 1031 10 16 N/A
9:55 am 09:55 Cloudy 54 12 54 12 100 100 SSE 9 15 30.45 1031 10 16 N/A
10:15 am 10:15 Cloudy 54 12 54 12 100 100 S 7 11 30.45 1031 10 16 N/A
10:35 am 10:35 Cloudy 54 12 54 12 100 100 SSE 7 11 30.45 1031 10 16 N/A
10:55 am 10:55 Cloudy 55 13 54 12 94 94 S 12 19 30.45 1031 7 11 N/A
11:15 am 11:15 Cloudy 55 13 52 11 88 88 S 12 19 30.42 1030 10 16 N/A
11:35 am 11:35 Cloudy 57 14 52 11 82 82 S 10 17 30.39 1029 10 16 N/A
11:55 am 11:55 Cloudy 57 14 52 11 82 82 S 15 24 30.39 1029 10 16 N/A
12:15 pm 12:15 Cloudy 59 15 52 11 77 77 S 12 19 30.36 1028 10 16 N/A
12:35 pm 12:35 Cloudy 59 15 50 10 72 72 SSW 13 20 30.36 1028 10 16 N/A
12:55 pm 12:55 Cloudy 59 15 50 10 72 72 SSW 10 17 30.36 1028 10 16 N/A
1:15 pm 13:15 Cloudy 59 15 50 10 72 72 S 8 13 30.36 1028 10 16 N/A
1:35 pm 13:35 Cloudy 59 15 50 10 72 72 S 7 11 30.36 1028 10 16 N/A
1:55 pm 13:55 Cloudy 59 15 50 10 72 72 SSW 7 11 30.36 1028 10 16 N/A
2:15 pm 14:15 Cloudy 59 15 52 11 77 77 S 8 13 30.36 1028 10 16 N/A
2:35 pm 14:35 Cloudy 59 15 52 11 77 77 SSW 10 17 30.33 1027 10 16 N/A
2:55 pm 14:55 Cloudy 59 15 52 11 77 77 SSW 6 9 30.33 1027 10 16 N/A
3:15 pm 15:15 Cloudy 59 15 52 11 77 77 S 8 13 30.33 1027 10 16 N/A
3:35 pm 15:35 Cloudy 61 16 52 11 72 72 S 8 13 30.30 1026 10 16 N/A
3:55 pm 15:55 Cloudy 61 16 52 11 72 72 SSW 12 19 30.30 1026 10 16 N/A
4:15 pm 16:15 Cloudy 63 17 52 11 68 68 S 12 19 30.27 1025 10 16 N/A
4:35 pm 16:35 Cloudy 61 16 52 11 72 72 S 9 15 30.27 1025 10 16 N/A
4:55 pm 16:55 Cloudy 63 17 52 11 68 68 S 14 22 30.27 1025 10 16 N/A
5:15 pm 17:15 Cloudy 63 17 52 11 68 68 SSW 12 19 30.27 1025 10 16 N/A
5:35 pm 17:35 Cloudy 63 17 52 11 68 68 S 12 19 30.27 1025 10 16 N/A
5:55 pm 17:55 Cloudy 61 16 52 11 72 72 S 10 17 30.27 1025 10 16 N/A
6:35 pm 18:35 Cloudy 61 16 52 11 72 72 SSW 6 9 30.27 1025 10 16 N/A
6:55 pm 18:55 Cloudy 61 16 52 11 72 72 S 9 15 30.27 1025 10 16 N/A
7:15 pm 19:15 Cloudy 61 16 52 11 72 72 S 7 11 30.27 1025 10 16 N/A
7:35 pm 19:35 Cloudy 61 16 52 11 72 72 S 8 13 30.24 1024 10 16 N/A
7:55 pm 19:55 Cloudy 61 16 52 11 72 72 S 8 13 30.24 1024 10 16 N/A
8:15 pm 20:15 Cloudy 61 16 54 12 77 77 S 7 11 30.24 1024 10 16 N/A
8:35 pm 20:35 Cloudy 61 16 54 12 77 77 S 7 11 30.24 1024 10 16 N/A
8:55 pm 20:55 Cloudy 61 16 54 12 77 77 S 8 13 30.24 1024 10 16 N/A
9:15 pm 21:15 Cloudy 61 16 54 12 77 77 S 9 15 30.24 1024 10 16 N/A
9:35 pm 21:35 Cloudy 61 16 54 12 77 77 S 10 17 30.24 1024 10 16 N/A
9:55 pm 21:55 Cloudy 59 15 54 12 82 82 SSW 8 13 30.24 1024 10 16 N/A
10:15 pm 22:15 Cloudy 59 15 54 12 82 82 SSW 8 13 30.24 1024 10 16 N/A
10:35 pm 22:35 Cloudy 59 15 54 12 82 82 SSW 8 13 30.21 1023 10 16 N/A
10:55 pm 22:55 Cloudy 59 15 54 12 82 82 SSW 6 9 30.21 1023 10 16 N/A
11:15 pm 23:15 Cloudy 59 15 55 13 88 88 S 6 9 30.21 1023 10 16 N/A
11:35 pm 23:35 Cloudy 59 15 55 13 88 88 SSW 5 7 30.21 1023 10 16 N/A
11:55 pm 23:55 Cloudy 59 15 55 13 88 88 SSW 5 7 30.21 1023 10 16 N/A

Powered by AerisWeather